Regional Weather Roundup
Issued by NWS

Home | Current Version | Previous Version | Graphics & Text | Print | Product List | Glossary On
Versions: 1 2 3 4 5 6 7 8 9 10 11 12 13 14 15 16 17 18 19 20 21 22 23 24 25 26 27
000
ASUS45 KBOI 182010
RWRID
WEATHER ROUNDUP FOR IDAHO
NATIONAL WEATHER SERVICE BOISE ID
200 PM MDT FRI APR 18 2014

NOTE: "FAIR" INDICATES FEW OR NO CLOUDS BELOW 12000 FEET
WITH NO SIGNIFICANT WEATHER AND/OR OBSTRUCTIONS TO VISIBILITY

IDZ012-014-182100-
SOUTHWEST IDAHO


CITY           SKY/WX    TMP DP  RH WIND       PRES   REMARKS
BOISE          SUNNY     58  32  37 W14G20    30.02F
CALDWELL       MOSUNNY   61  30  31 NW13      30.04F
MOUNTAIN HOME  MOSUNNY   61  25  26 NW14G20   30.00F
$$

IDZ016-017-182100-
SOUTHCENTRAL IDAHO


CITY           SKY/WX    TMP DP  RH WIND       PRES   REMARKS
BURLEY         MOSUNNY   56  36  47 W15G25    29.98F
JEROME         SUNNY     55  35  47 W21G28    30.00F
TWIN FALLS     MOSUNNY   59  36  42 W16G22    30.00F
$$

IDZ019>023-182100-
SOUTHEAST IDAHO


CITY           SKY/WX    TMP DP  RH WIND       PRES   REMARKS
IDAHO FALLS    PTSUNNY   53  37  54 S36G44    29.91F
POCATELLO      PTSUNNY   53  35  50 SW26G35   29.98F
REXBURG        CLOUDY    51  37  58 S18G33    29.90F
$$

IDZ006-010-011-018-031-032-182100-
CENTRAL IDAHO MOUNTAINS


CITY           SKY/WX    TMP DP  RH WIND       PRES   REMARKS
MCCALL         MOSUNNY   48  12  23 SW14G20   29.98S
HAILEY         MOSUNNY   55   7  14 SW17G35   29.94R
STANLEY          N/A     42  16  34 N8        29.98R
SALMON         MOSUNNY   55  19  24 W17G28    29.84R
CHALLIS        SUNNY     55  12  18 SW17G33   29.90R
$$

IDZ002-004-006-007-026-182100-
NORTHERN IDAHO


CITY           SKY/WX    TMP DP  RH WIND       PRES   REMARKS
LEWISTON       PTSUNNY   57  16  20 SW14G22   29.99S
LOWELL           N/A     58  26  29 SE10G17   29.99S
COEUR D`ALENE  PTSUNNY   45  28  53 SW24G31   29.95S
MULLAN PASS    HVY SNOW  27  25  93 VRB7      29.87R VSB 1/4 WCI  19
$$



USA.gov is the U.S. government's official web portal to all federal, state and local government web resources and services.